STARLINK-11171, 60069

Orbit data source: Space-Track

STARLINK-11171, 60069 is a payload satellite owned by SpaceX/Seattle (US) in LEO that was launched on Wed, 19 Jun 2024 UTC via an FALCON 9 launch vehicle from the Air Force Western Test Range (AFWTR). Payload-class satellites include a variety of spacecraft equipped with specific instruments for various scientific and technological missions. These include communications satellites like Starlink; space stations such as the ISS; scientific satellites like the Hubble; Earth observation satellites from companies like Planet Labs, Umbra, and HawkEye 360; GPS; miniature CubeSats for education and research; and military/defense satellites.

Loading next visibility...
Identifier
60069, 2024-113L
Orbit
LEO
Country
Flag of USUS
Related business
Manufacturer
SpaceX/Seattle
Mission
Operational Commercial Communications
Bus & Motor
STARLINK V2MD, Unknown motor
Mass
960 kg wet, ~910 kg dry
Launch date (UTC)
2024-06-19 (2 years ago)
Launch vehicle
FALCON 9
Launch site
Air Force Western Test Range (AFWTR)
Object type
Payload
Rocket body
Debris
Shape & HBR
Box + 2 Pan, 18.1 m
Radar Cross Section
36.964 m², Large (>1 m²)

Expand to show TLE details & history
Last TLE update: 15 hours ago

TLE from 15 hours ago
0 STARLINK-11171
1 60069U 24113L   26171.36625988 -.00000910  00000-0 -26495-5 0  9999
2 60069  53.1579  45.3492 0001262  99.5863 260.5297 15.69711953115680
Epoch: 2026-06-20T08:47Z
TLE epoch observation values (Epoch: 2026-06-20T08:47:24.853Z)
Latitude
-0.00007°
Longitude
4.91368°
Altitude
360.776 km
Speed
7.694 km/s
True Right ascension
03h 01m 23s
True Declination
0° 00' 00"
Sunlit
Object was in daylight at epoch
Visualization orbit readout
Latitude
Unknown
Longitude
Unknown
Altitude
Unknown
Speed
Unknown
Apparent Right ascension
Unknown
Apparent Declination
Unknown
Sunlit
N/A
Visualization observer readout
Local Sidereal Time
10:18:43
Azimuth
Unknown
Elevation
Unknown
Doppler factor
Unknown
Orbital elements
Apogee altitude
360.833 km
Perigee altitude
359.132 km
Semi-major axis
6,738.119 km
Eccentricity
0.00013
Inclination
53.1579°
RAAN
45.3492°
Arg. of periapsis
99.5863°
True anomaly
260.51544°
Mean anomaly
260.5297°
Eccentric anomaly
260.52257°
Mean motion
3.92406 °/min
Orbital period
91.74 mins
BSTAR
-0.0000026495
Loading maneuver chart data...
Computing Atmospheric mass density...

Documentation

Showing up to 5 results
|